Flag for China Weather past 2 weeks in Langfang, Hebei, China

Now
61 °F

Passing clouds.


Feels Like: 61 °F
Forecast: 35 / 58 °F
Wind: 13 mph from Northeast

Location: Beijing Airport

Current Time: Oct 26, 2014 at 1:28:32 PM

Latest Report: Oct 26, 2014 at 1:00 PM


Visibility: N/A

Pressure: 30.30 "Hg

Humidity: 15%

Dew point: 12 °F

Location of LangfangLocation

Historic Weather in Langfang — Graph

°F

Langfang temperature yesterday

Maximum temperature yesterday: 66 °F (at 1:30 PM)
Minimum temperature yesterday: 46 °F (at 5:00 AM)
Average temperature yesterday: 56 °F

Past Weeks' High & Low Weather Summary

 TemperatureHumidityPressure
High75 °F (Oct 17, 3:00 PM)100% (Oct 15, 3:30 AM)30.51 "Hg (Oct 15, 3:30 AM)
Low36 °F (Oct 16, 6:30 AM)10% (Oct 15, 4:00 PM)29.80 "Hg (Oct 24, 2:30 PM)
Average56 °F63%30.09 "Hg
* Reported Oct 11 12:00 Noon — Oct 26 12:30 PM, Langfang, Weather by CustomWeather, © 2014

Note: Actual official high and low records may vary slightly from our data, if they occured in-between our weather recording intervals... More about our weather records

Advertising

Langfang weather history for previous 24 hours

 ConditionsComfort  
Time TempWeatherWind HumidityBarometerVisibility
12:30 PM
Oct 26
61 °FSunny.15 mph13%30.33 "Hg10 mi
12:00 PM61 °FSunny.17 mph13%30.33 "Hg10 mi
11:30 AM61 °FSunny.15 mph16%30.33 "Hg10 mi
11:00 AM61 °FPassing clouds.15 mph17%30.33 "HgN/A
10:30 AM59 °FSunny.15 mph18%30.33 "Hg10 mi
10:00 AM59 °FSunny.17 mph20%30.33 "Hg10 mi
9:30 AM57 °FPassing clouds.13 mph25%30.30 "HgN/A
9:00 AM57 °FPassing clouds.15 mph29%30.30 "HgN/A
8:30 AM57 °FSunny.15 mph31%30.27 "Hg10 mi
8:00 AM57 °FSunny.13 mph29%30.27 "Hg10 mi
7:30 AM57 °FSunny.13 mph31%30.24 "Hg10 mi
7:00 AM57 °FSunny.15 mph33%30.18 "Hg10 mi
6:30 AM57 °FClear.10 mph36%30.15 "Hg10 mi
6:00 AM57 °FClear.13 mph39%30.12 "Hg10 mi
5:30 AM57 °FClear.13 mph41%30.12 "Hg10 mi
5:00 AM57 °FPassing clouds.8 mph48%30.09 "HgN/A
4:30 AM54 °FFog.6 mph72%30.07 "Hg3 mi
4:00 AM52 °FFog.3 mph88%30.04 "Hg2 mi
3:30 AM52 °FFog.6 mph94%30.04 "Hg1 mi
3:00 AM50 °FFog.8 mph100%30.01 "Hg1 mi
2:30 AM52 °FFog.8 mph100%30.01 "Hg1 mi
2:00 AM54 °FFog.6 mph100%30.01 "Hg1 mi
1:30 AM54 °FFog.6 mph94%29.98 "Hg0 mi
1:00 AM55 °FFog.3 mph100%29.98 "Hg0 mi
12:30 AM55 °FFog.3 mph100%29.98 "Hg0 mi
12:00 AM55 °FFog.3 mph100%29.95 "Hg0 mi
11:30 PM
Oct 25
55 °FFog.1 mph100%29.95 "Hg0 mi
11:00 PM55 °FFog.1 mph100%29.95 "Hg0 mi
10:30 PM55 °FFog.3 mph94%29.95 "Hg1 mi
10:00 PM54 °FFog.1 mph100%29.92 "Hg1 mi
9:30 PM54 °FFog.1 mph100%29.92 "Hg1 mi
9:00 PM55 °FFog.1 mph94%29.89 "Hg1 mi
8:30 PM57 °FFog.3 mph94%29.89 "Hg1 mi
8:00 PM59 °FFog.3 mph94%29.89 "Hg1 mi
7:30 PM55 °FFog.1 mph100%29.86 "Hg1 mi
7:00 PM55 °FFog.1 mph94%29.86 "Hg1 mi
6:30 PM57 °FFog.1 mph94%29.86 "Hg1 mi
6:00 PM59 °FFog.1 mph88%29.86 "Hg1 mi
5:30 PM61 °FHaze.1 mph83%29.86 "Hg1 mi
5:00 PM63 °FHaze.1 mph77%29.83 "Hg1 mi
4:30 PM63 °FHaze.1 mph77%29.83 "Hg1 mi
4:00 PM66 °FHaze.3 mph68%29.83 "Hg1 mi
3:30 PM66 °FHaze.3 mph68%29.83 "Hg1 mi
3:00 PM66 °FHaze.3 mph68%29.83 "Hg1 mi
2:30 PM66 °FHaze.6 mph68%29.83 "Hg1 mi
2:00 PM66 °FHaze.3 mph68%29.83 "Hg1 mi
1:30 PM66 °FHaze.1 mph68%29.83 "Hg1 mi
1:00 PM64 °FHaze.3 mph73%29.86 "Hg1 mi
Weather by CustomWeather, © 2014

See weather overviewHow to use our weather pages